Location: Białogard
(54.0043°N, 15.9864°E)
Time: 22:20:31
(UTC+01:00)

ISS - Visible Passes

Search period start: 19 January 2018 00:00
Search period end: 29 January 2018 00:00
Orbit: 402 x 407 km, 51.6° (Epoch: 20 January)

Date Brightness Start Highest point End Pass type
(mag) Time Alt. Az. Time Alt. Az. Time Alt. Az.
26 Jan -1.0 18:56:04 10° S 18:56:11 11° S 18:56:11 11° S visible
27 Jan -1.4 18:05:04 10° SSE 18:06:06 11° SE 18:06:11 11° SE visible
28 Jan -2.0 18:46:51 10° SSW 18:48:46 23° S 18:48:46 23° S visible
